Weather History for KRWL - April, 2013

Change the Weather History Date:

Tuesday, April 9, 2013

  Actual Average Record
Temperature  
Mean Temperature 10 °F 38 °F  
Max Temperature 12 °F 51 °F 73 °F (1996)
Min Temperature 7 °F 25 °F -3 °F (1973)
Degree Days  
Heating Degree Days 55 27  
Month to date heating degree days 248 249  
Since 1 July heating degree days 6841 7221  
Cooling Degree Days 0 0  
Month to date cooling degree days 0 0  
Year to date cooling degree days 0 0  
Moisture  
Dew Point 3 °F    
Average Humidity 81    
Maximum Humidity 88    
Minimum Humidity 73    
Precipitation  
Precipitation 0.06 in 0.03 in 0.50 in (2009)
Month to date precipitation 0.18 0.28  
Year to date precipitation 0.86 1.74  
Sea Level Pressure  
Sea Level Pressure 30.03 in    
Wind  
Wind Speed 19 mph (NE)    
Max Wind Speed 35 mph    
Max Gust Speed 40 mph    
Visibility 2 miles    
Events Fog , Snow    
T = Trace of Precipitation, MM = Missing Value Source: NWS Daily Summary

Daily Weather History Graph

Daily Weather History Graph

Search for Another Location

Airport or City:

Trip Planner

Search our weather history database for the weather conditions in past years. The results will help you decide how hot, cold, wet, or windy it might be!

Date:

Astronomy

Apr. 09, 2013 Rise Set
Actual Time 6:37 AM MDT 7:43 PM MDT
Civil Twilight 6:09 AM MDT 8:12 PM MDT
Nautical Twilight 5:35 AM MDT 8:46 PM MDT
Astronomical Twilight 4:59 AM MDT 9:21 PM MDT
Moon 6:02 AM MDT (4/9) 7:22 PM MDT (4/9)
Length of Visible Light 14h 02m
Length of Day
13h 05m
Waning Crescent, 0% of the Moon is Illuminated
Apr 9
Waning Crescent
Apr 10
New
Apr 18
First Quarter
Apr 25
Full
May 2
Last Quarter

Hourly Weather History & Observations

Time (MDT) Temp. Windchill Dew Point Humidity Pressure Visibility Wind Dir Wind Speed Gust Speed Precip Events Conditions
12:53 AM 10.0 °F -9.5 °F 6.1 °F 84% 29.90 in 0.8 mi NNE 21.9 mph - 0.01 in   Mist
1:00 AM 10.4 °F -10.7 °F 6.8 °F 85% 29.83 in 1.2 mi NNE 26.5 mph 32.2 mph N/A   Overcast
1:17 AM 10.4 °F -11.4 °F 5.0 °F 79% 29.84 in 1.5 mi NE 28.8 mph 35.7 mph N/A   Haze
1:40 AM 10.4 °F -10.7 °F 6.8 °F 85% 29.84 in 2.5 mi NE 26.5 mph 34.5 mph N/A   Overcast
1:49 AM 10.4 °F -11.0 °F 5.0 °F 79% 29.84 in 3.0 mi NE 27.6 mph 35.7 mph N/A   Haze
1:53 AM 10.0 °F -11.1 °F 5.0 °F 80% 29.91 in 3.0 mi NE 26.5 mph 35.7 mph N/A   Haze
2:18 AM 8.6 °F -11.9 °F 3.2 °F 79% 29.85 in 2.0 mi NE 23.0 mph - N/A   Haze
2:29 AM 8.6 °F -13.4 °F 3.2 °F 79% 29.85 in 1.2 mi NE 27.6 mph 34.5 mph N/A   Overcast
2:53 AM 8.1 °F -13.8 °F 3.0 °F 80% 29.97 in 1.5 mi NE 26.5 mph 38.0 mph 0.00 in Snow Light Snow
3:19 AM 8.6 °F -14.8 °F 3.2 °F 79% 29.85 in 0.5 mi NE 32.2 mph 40.3 mph 0.00 in Fog , Snow Snow
3:40 AM 8.6 °F -13.1 °F 3.2 °F 79% 29.87 in 0.2 mi NE 26.5 mph 36.8 mph 0.01 in Fog Light Freezing Fog
3:53 AM 8.1 °F -13.4 °F 3.9 °F 83% 29.99 in 0.2 mi NE 25.3 mph 35.7 mph 0.02 in Fog Light Freezing Fog
4:21 AM 8.6 °F -12.3 °F 3.2 °F 79% 29.85 in 0.5 mi NE 24.2 mph 35.7 mph 0.00 in Fog , Snow Snow
4:34 AM 8.6 °F -13.1 °F 3.2 °F 79% 29.85 in 0.8 mi NE 26.5 mph 35.7 mph 0.00 in Snow Light Snow
4:53 AM 7.0 °F -14.9 °F 3.0 °F 84% 30.02 in 0.8 mi NE 25.3 mph 31.1 mph 0.00 in Snow Light Snow
5:02 AM 6.8 °F -14.3 °F 3.2 °F 85% 29.88 in 1.0 mi NE 23.0 mph 28.8 mph 0.00 in Snow Light Snow
5:35 AM 6.8 °F -16.2 °F 3.2 °F 85% 29.88 in 1.0 mi NE 28.8 mph 36.8 mph 0.00 in Snow Light Snow
5:53 AM 7.0 °F -15.3 °F 3.0 °F 84% 30.06 in 1.2 mi NE 26.5 mph 39.1 mph 0.00 in Snow Light Snow
6:05 AM 6.8 °F -16.9 °F 3.2 °F 85% 29.89 in 2.0 mi NE 31.1 mph 40.3 mph 0.00 in Snow Blowing Snow
6:13 AM 6.8 °F -16.2 °F 3.2 °F 85% 29.91 in 2.0 mi NE 28.8 mph 40.3 mph 0.00 in Snow Blowing Snow
6:23 AM 6.8 °F -16.6 °F 3.2 °F 85% 29.92 in 3.0 mi NE 29.9 mph 36.8 mph 0.00 in Snow Blowing Snow
6:53 AM 8.1 °F -14.5 °F 3.0 °F 80% 30.10 in 4.0 mi NE 28.8 mph 33.4 mph 0.00 in Snow Blowing Snow
7:07 AM 8.6 °F -14.1 °F 1.4 °F 73% 29.92 in 2.5 mi NNE 29.9 mph 40.3 mph N/A Snow Blowing Snow
7:24 AM 8.6 °F -11.9 °F 1.4 °F 73% 29.93 in 4.0 mi NE 23.0 mph 33.4 mph 0.00 in Snow Light Snow
7:53 AM 8.1 °F -14.2 °F 1.9 °F 76% 30.14 in 6.0 mi NE 27.6 mph 33.4 mph 0.00 in Snow Blowing Snow
8:40 AM 8.6 °F -14.1 °F 1.4 °F 73% 29.96 in 1.8 mi NE 29.9 mph 34.5 mph 0.00 in Snow Light Snow
8:53 AM 8.1 °F -13.0 °F 1.9 °F 76% 30.17 in 1.5 mi NE 24.2 mph 33.4 mph 0.00 in Snow Light Snow
9:50 AM 8.6 °F -11.9 °F 3.2 °F 79% 29.96 in 1.2 mi NE 23.0 mph 29.9 mph 0.00 in Snow Light Snow
9:53 AM 9.0 °F -12.2 °F 3.0 °F 77% 30.19 in 1.2 mi NE 25.3 mph 33.4 mph 0.00 in Snow Light Snow
10:00 AM 8.6 °F -13.1 °F 3.2 °F 79% 29.96 in 1.2 mi NE 26.5 mph 35.7 mph 0.00 in Snow Light Snow
10:18 AM 8.6 °F -13.4 °F 1.4 °F 73% 29.98 in 1.2 mi NE 27.6 mph 35.7 mph 0.00 in Snow Light Snow
10:42 AM 8.6 °F -13.1 °F 1.4 °F 73% 29.97 in 0.8 mi NE 26.5 mph 35.7 mph 0.00 in Snow Light Snow
10:53 AM 9.0 °F -12.6 °F 1.9 °F 73% 30.20 in 1.0 mi NE 26.5 mph 34.5 mph 0.00 in Snow Light Snow
11:29 AM 10.4 °F -10.7 °F 3.2 °F 73% 29.99 in 0.8 mi NE 26.5 mph 33.4 mph 0.00 in Snow Light Snow
11:41 AM 8.6 °F -13.4 °F 3.2 °F 79% 29.98 in 0.8 mi NE 27.6 mph 33.4 mph 0.00 in Snow Light Snow
11:47 AM 8.6 °F -12.7 °F 3.2 °F 79% 29.98 in 1.0 mi NE 25.3 mph 33.4 mph 0.00 in Snow Light Snow
11:53 AM 8.1 °F -13.8 °F 1.9 °F 76% 30.22 in 0.8 mi NE 26.5 mph 32.2 mph 0.00 in Snow Light Snow
12:03 PM 8.6 °F -13.1 °F 3.2 °F 79% 29.99 in 0.5 mi NE 26.5 mph 33.4 mph 0.00 in Snow Snow
12:15 PM 8.6 °F -13.1 °F 3.2 °F 79% 29.99 in 0.2 mi NE 26.5 mph 33.4 mph 0.01 in Snow Heavy Snow
12:23 PM 8.6 °F -13.1 °F 3.2 °F 79% 29.98 in 0.2 mi NE 26.5 mph 32.2 mph 0.01 in Fog , Snow Heavy Snow
12:32 PM 8.6 °F -13.4 °F 3.2 °F 79% 29.98 in 0.2 mi NE 27.6 mph 33.4 mph 0.01 in   Haze
12:44 PM 8.6 °F -13.1 °F 3.2 °F 79% 29.98 in 0.2 mi NE 26.5 mph 33.4 mph 0.01 in   Haze
12:53 PM 9.0 °F -11.8 °F 3.0 °F 77% 30.22 in 0.2 mi NE 24.2 mph 34.5 mph 0.02 in   Haze
1:00 PM 8.6 °F -11.4 °F 3.2 °F 79% 29.98 in 0.2 mi NE 21.9 mph 31.1 mph N/A   Haze
1:13 PM 8.6 °F -11.9 °F 3.2 °F 79% 29.97 in 0.5 mi NE 23.0 mph 31.1 mph 0.00 in Snow Snow
1:22 PM 8.6 °F -12.3 °F 3.2 °F 79% 29.97 in 1.0 mi NE 24.2 mph 31.1 mph 0.00 in Snow Light Snow
1:34 PM 10.4 °F -9.9 °F 3.2 °F 73% 29.97 in 0.5 mi NE 24.2 mph 31.1 mph 0.00 in Snow Snow
1:53 PM 12.0 °F -6.0 °F 5.0 °F 73% 30.21 in 0.5 mi NNE 19.6 mph 26.5 mph 0.00 in Snow Snow
2:13 PM 10.4 °F -9.1 °F 3.2 °F 73% 29.98 in 1.0 mi NE 21.9 mph - 0.00 in Snow Light Snow
2:32 PM 10.4 °F -8.6 °F 3.2 °F 73% 29.98 in 0.8 mi NNE 20.7 mph - 0.00 in Snow Light Snow
2:51 PM 10.4 °F -9.9 °F 5.0 °F 79% 29.98 in 0.5 mi NE 24.2 mph 27.6 mph 0.00 in Snow Snow
2:53 PM 10.9 °F -8.8 °F 5.0 °F 77% 30.22 in 0.5 mi NNE 23.0 mph - 0.00 in Snow Snow
3:04 PM 10.4 °F -9.9 °F 3.2 °F 73% 29.98 in 1.0 mi NNE 24.2 mph - 0.00 in Snow Light Snow
3:29 PM 10.4 °F -8.6 °F 3.2 °F 73% 29.98 in 0.8 mi NNE 20.7 mph 31.1 mph 0.00 in Snow Light Snow
3:37 PM 10.4 °F -9.9 °F 3.2 °F 73% 29.98 in 1.5 mi NNE 24.2 mph 27.6 mph 0.00 in Snow Light Snow
3:53 PM 10.9 °F -7.9 °F 3.9 °F 73% 30.22 in 1.8 mi NNE 20.7 mph - 0.00 in Snow Light Snow
4:06 PM 10.4 °F -9.9 °F 3.2 °F 73% 29.99 in 2.5 mi NNE 24.2 mph 29.9 mph 0.00 in Snow Light Snow
4:15 PM 10.4 °F -9.5 °F 3.2 °F 73% 29.99 in 3.0 mi NNE 23.0 mph - 0.00 in Snow Light Snow
4:53 PM 10.9 °F -8.8 °F 3.9 °F 73% 30.25 in 3.0 mi NNE 23.0 mph - 0.00 in Snow Light Snow
5:22 PM 10.4 °F -9.1 °F 3.2 °F 73% 30.01 in 2.5 mi NNE 21.9 mph - 0.00 in Snow Light Snow
5:33 PM 10.4 °F -7.7 °F 3.2 °F 73% 30.01 in 3.0 mi NNE 18.4 mph - 0.00 in Snow Light Snow
5:53 PM 10.9 °F -7.0 °F 3.9 °F 73% 30.28 in 4.0 mi NE 18.4 mph 26.5 mph 0.00 in Snow Light Snow
6:53 PM 9.0 °F -7.9 °F 1.9 °F 73% 30.30 in 5.0 mi NNE 15.0 mph - 0.00 in Snow Light Snow
7:53 PM 8.1 °F -7.0 °F 1.9 °F 76% 30.33 in 9.0 mi NE 11.5 mph - 0.00 in   Overcast
8:53 PM 8.1 °F -6.2 °F 3.0 °F 80% 30.36 in 2.0 mi NNE 10.4 mph - 0.00 in Snow Light Snow
9:00 PM 8.6 °F -5.5 °F 3.2 °F 79% 30.10 in 2.0 mi NNE 10.4 mph - 0.00 in Snow Light Snow
9:26 PM 8.6 °F -2.6 °F 3.2 °F 79% 30.10 in 1.2 mi NNE 6.9 mph - 0.00 in Snow Light Snow
9:46 PM 8.6 °F -4.7 °F 3.2 °F 79% 30.10 in 3.0 mi NNE 9.2 mph - 0.00 in Snow Light Snow
9:53 PM 8.1 °F -6.2 °F 3.0 °F 80% 30.35 in 2.5 mi NNE 10.4 mph - 0.00 in Snow Light Snow
10:05 PM 8.6 °F -6.3 °F 3.2 °F 79% 30.10 in 3.0 mi NE 11.5 mph - 0.00 in Snow Light Snow
10:53 PM 8.1 °F -4.3 °F 3.0 °F 80% 30.35 in 4.0 mi NNE 8.1 mph - 0.00 in Snow Light Snow
11:06 PM 8.6 °F 0.1 °F 3.2 °F 79% 30.09 in 2.0 mi NE 4.6 mph - 0.00 in Snow Light Snow
11:13 PM 8.6 °F 2.0 °F 3.2 °F 79% 30.09 in 1.5 mi NNE 3.5 mph - 0.00 in Snow Light Snow
11:29 PM 8.6 °F - 3.2 °F 79% 30.09 in 2.0 mi Calm Calm - 0.01 in Snow Light Snow
11:53 PM 8.1 °F - 3.0 °F 80% 30.35 in 4.0 mi Calm Calm - 0.01 in Snow Light Snow